EW0322 Weather Reports


Display with metric or nautical units.
time (UTC)temp
F
wind
direction
speed
MPH
gust
MPH
rain 1hr
in
rain 24hr
in
rain mn
in
humidity
%
barometer
mb
20260508191527 86 96 1.0 4.0 0.00 0.00 0.00 14 1004.2
20260508190026 87 101 1.0 7.0 0.00 0.00 0.00 16 1004.3
20260508184518 85 105 0.0 4.0 0.00 0.00 0.00 15 1004.6
20260508183014 83 109 0.0 6.0 0.00 0.00 0.00 15 1004.7
20260508181512 84 109 0.0 7.0 0.00 0.00 0.00 16 1004.8
20260508180016 83 113 1.0 7.0 0.00 0.00 0.00 17 1005.0
20260508174505 83 115 3.0 8.0 0.00 0.00 0.00 17 1005.4
20260508173001 80 115 0.0 8.0 0.00 0.00 0.00 20 1005.4
20260508171558 80 115 0.0 7.0 0.00 0.00 0.00 21 1005.5
20260508170054 80 116 0.0 4.0 0.00 0.00 0.00 20 1005.8
20260508164551 79 116 0.0 4.0 0.00 0.00 0.00 21 1005.8
20260508163049 79 115 0.0 4.0 0.00 0.00 0.00 22 1005.9
20260508161543 77 116 0.0 6.0 0.00 0.00 0.00 22 1006.0
20260508160058 75 115 0.0 8.0 0.00 0.00 0.00 24 1006.2
20260508154534 73 113 1.0 4.0 0.00 0.00 0.00 25 1006.2
20260508153030 72 109 0.0 6.0 0.00 0.00 0.00 25 1006.4
20260508151524 72 102 1.0 6.0 0.00 0.00 0.00 26 1006.4
20260508150022 72 102 0.0 3.0 0.00 0.00 0.00 27 1006.3
20260508144518 73 102 0.0 1.0 0.00 0.00 0.00 26 1006.4
20260508143017 71 102 0.0 1.0 0.00 0.00 0.00 30 1006.6
20260508141515 69 103 0.0 1.0 0.00 0.00 0.00 34 1006.6
20260508140006 68 103 0.0 0.0 0.00 0.00 0.00 35 1006.4
20260508134503 65 103 0.0 1.0 0.00 0.00 0.00 37 1006.3
20260508133101 64 102 0.0 2.0 0.00 0.00 0.00 40 1006.1
20260508131554 61 102 0.0 0.0 0.00 0.00 0.00 42 1006.0
20260508130055 60 103 0.0 0.0 0.00 0.00 0.00 44 1005.9
20260508124549 59 103 0.0 0.0 0.00 0.00 0.00 44 1006.0
20260508123046 59 103 0.0 1.0 0.00 0.00 0.00 43 1005.9
20260508121600 59 103 0.0 3.0 0.00 0.00 0.00 42 1005.7
20260508120043 60 103 0.0 1.0 0.00 0.00 0.00 42 1005.5
20260508114540 60 103 0.0 1.0 0.00 0.00 0.00 42 1005.4
20260508113040 60 103 0.0 1.0 0.00 0.00 0.00 42 1005.2
20260508111538 61 102 0.0 1.0 0.00 0.00 0.00 43 1005.4
20260508110047 61 103 0.0 0.0 0.00 0.00 0.00 43 1005.5
20260508104535 61 102 0.0 0.0 0.00 0.00 0.00 43 1005.6
20260508103037 61 102 0.0 1.0 0.00 0.00 0.00 43 1005.5
20260508101537 62 102 0.0 1.0 0.00 0.00 0.00 43 1005.0
20260508100033 62 103 0.0 1.0 0.00 0.00 0.00 43 1005.0
20260508094533 62 103 0.0 0.0 0.00 0.00 0.00 42 1005.0
20260508093030 62 103 0.0 0.0 0.00 0.00 0.00 42 1005.0
20260508091529 62 103 0.0 0.0 0.00 0.00 0.00 42 1005.1
20260508090026 63 103 0.0 0.0 0.00 0.00 0.00 41 1005.4
20260508084524 63 103 0.0 0.0 0.00 0.00 0.00 40 1005.6
20260508083104 64 102 0.0 1.0 0.00 0.00 0.00 40 1005.7
20260508081518 64 103 0.0 2.0 0.00 0.00 0.00 39 1005.9
20260508080020 65 103 0.0 0.0 0.00 0.00 0.00 38 1005.8
20260508074514 66 103 0.0 0.0 0.00 0.00 0.00 37 1005.9
20260508073011 66 103 0.0 1.0 0.00 0.00 0.00 37 1006.0
20260508071511 67 103 0.0 2.0 0.00 0.00 0.00 36 1006.4
20260508070012 66 103 0.0 1.0 0.00 0.00 0.00 36 1006.7
20260508064524 66 103 0.0 0.0 0.00 0.00 0.00 37 1006.7
20260508063006 66 103 0.0 1.0 0.00 0.00 0.00 36 1006.7
20260508061503 67 103 0.0 0.0 0.00 0.00 0.00 35 1006.7
20260508060112 68 103 0.0 3.0 0.00 0.00 0.00 34 1006.5
20260508054605 68 103 0.0 3.0 0.00 0.00 0.00 33 1006.4
20260508053105 68 103 0.0 0.0 0.00 0.00 0.00 31 1006.3
20260508051559 69 103 0.0 4.0 0.00 0.00 0.00 31 1006.6
20260508050100 70 103 3.0 9.0 0.00 0.00 0.00 30 1006.5
20260508044558 71 118 3.0 9.0 0.00 0.00 0.00 28 1006.5
20260508043057 72 207 1.0 4.0 0.00 0.00 0.00 25 1006.1
20260508041603 72 207 0.0 4.0 0.00 0.00 0.00 24 1006.2
20260508040106 73 209 0.0 3.0 0.00 0.00 0.00 22 1006.0
20260508034557 74 210 1.0 4.0 0.00 0.00 0.00 19 1005.9
20260508033101 75 210 0.0 4.0 0.00 0.00 0.00 18 1005.6
20260508031554 76 210 0.0 3.0 0.00 0.00 0.00 17 1005.4
20260508030109 76 211 0.0 1.0 0.00 0.00 0.00 17 1005.2
20260508024601 76 211 0.0 0.0 0.00 0.00 0.00 16 1005.1
20260508023053 77 210 0.0 0.0 0.00 0.00 0.00 16 1004.9
20260508021552 78 210 0.0 1.0 0.00 0.00 0.00 15 1004.7
20260508020050 78 211 0.0 0.0 0.00 0.00 0.00 15 1004.5
20260508014550 79 211 0.0 2.0 0.00 0.00 0.00 15 1004.4
20260508013050 79 211 0.0 5.0 0.00 0.00 0.00 14 1004.4
20260508011601 80 219 0.0 5.0 0.00 0.00 0.00 15 1004.4
20260508010058 80 219 0.0 3.0 0.00 0.00 0.00 14 1004.4
20260508004557 81 219 2.0 5.0 0.00 0.00 0.00 14 1004.5
20260508003051 81 219 0.0 4.0 0.00 0.00 0.00 14 1004.4
20260508001547 81 219 2.0 6.0 0.00 0.00 0.00 14 1004.4
20260508000045 82 219 2.0 6.0 0.00 0.00 0.00 14 1004.5
20260507234543 83 219 3.0 6.0 0.00 0.00 0.00 13 1004.8
20260507233041 82 207 1.0 5.0 0.00 0.00 0.00 14 1004.9
20260507231541 82 207 2.0 8.0 0.00 0.00 0.00 14 1005.1
20260507230038 82 207 1.0 6.0 0.00 0.00 0.00 14 1005.4
20260507224539 83 207 0.0 6.0 0.00 0.00 0.00 14 1005.5
20260507223033 83 207 0.0 3.0 0.00 0.00 0.00 15 1005.6
20260507221534 81 207 1.0 7.0 0.00 0.00 0.00 15 1005.8
20260507220029 80 206 3.0 7.0 0.00 0.00 0.00 15 1005.9
20260507214528 81 160 5.0 11.0 0.00 0.00 0.00 15 1006.1
20260507213031 82 61 2.0 5.0 0.00 0.00 0.00 16 1006.2
20260507211525 80 63 4.0 9.0 0.00 0.00 0.00 16 1006.6
20260507210020 80 63 0.0 7.0 0.00 0.00 0.00 18 1006.9
20260507204519 79 55 1.0 7.0 0.00 0.00 0.00 20 1007.0
20260507203018 79 55 4.0 10.0 0.00 0.00 0.00 19 1007.0
20260507201515 79 21 1.0 10.0 0.00 0.00 0.00 19 1007.3
20260507200022 79 17 0.0 9.0 0.00 0.00 0.00 19 1007.8
20260507194510 78 17 0.0 8.0 0.00 0.00 0.00 20 1008.0
20260507193008 78 17 0.0 8.0 0.00 0.00 0.00 21 1008.2